Location: Huppendorf
(49.9333°N, 11.1500°E)
Time: 20:20:04
(UTC+00:00)

ARGOS - Pass Details

Date: 27 February 2020
Orbit: 819 x 835 km, 98.5° (Epoch: 03 April)

Event Time Altitude Azimuth Distance (km) Brightness Sun altitude
Exits shadow 19:04:37 - 172° (S) 2,553 5.5 -21.8°
Reaches altitude 10° 19:04:55 10° 172° (S) 2,441 5.4 -21.8°
Maximum altitude 19:10:19 71° 257° (WSW) 884 3.4 -22.7°
Drops below altitude 10° 19:15:46 10° 342° (NNW) 2,459 6.0 -23.5°
Sets 19:18:09 0° 344° (NNW) 3,397 6.8 -23.9°
